Location: Cruquius
(52.3348°N, 4.6319°E)
Time: 08:33:24
(UTC+00:00)

Resurs 01 Rocket - Pass Details

Date: 12 May 2021
Orbit: 633 x 645 km, 97.9° (Epoch: 20 June)

Event Time Altitude Azimuth Distance (km) Brightness Sun altitude
Exits shadow 20:25:38 - 176° (S) 2,741 4.4 -8.0°
Reaches altitude 10° 20:27:22 10° 180° (S) 2,037 3.8 -8.1°
Maximum altitude 20:31:45 57° 259° (W) 765 2.2 -8.6°
Drops below altitude 10° 20:36:09 10° 338° (NNW) 2,048 5.5 -9.1°
Sets 20:38:24 0° 343° (NNW) 2,960 6.3 -9.3°
